Theta_e
341 340 342 345 347 345 344 345 344 347 346 346 347 346 347 347 347 348 348 349 347 346 345 345 345 347 346 345 345 343 341 336 336 333 331 333 329 328 333 335 335 336 326 326 324 318 315 310 312 317 319 319 317 318 317 317 317 318 317 315 315 315 316
344 344 344 345 345 345 345 345 344 344 345 346 346 347 347 346 347 347 347 346 347 345 344 344 344 344 346 345 344 343 341 335 334 336 334 333 332 330 330 331 334 331 326 328 327 324 318 313 312 312 313 317 321 321 320 317 318 318 317 316 314 313 316
345 344 343 344 345 346 344 344 344 344 343 346 348 347 347 347 347 347 347 346 346 346 343 342 343 344 346 345 345 344 344 340 336 334 333 333 333 334 333 330 329 329 325 325 326 324 323 320 313 312 314 310 310 315 320 318 317 317 316 317 316 314 313
345 345 342 342 343 344 343 343 344 344 343 345 348 348 348 347 347 347 346 346 347 346 345 343 347 347 347 346 346 346 344 343 340 335 334 334 333 331 331 332 330 329 325 323 323 323 321 318 315 313 315 312 312 312 315 317 315 315 315 317 316 314 312
346 345 343 341 342 342 343 342 344 345 344 346 348 347 347 347 347 347 348 347 346 347 345 351 348 350 349 347 346 345 344 343 343 340 333 332 332 331 330 330 331 331 329 327 326 325 322 320 317 314 314 313 314 313 315 317 316 314 315 316 315 313 312
347 348 345 343 343 342 343 343 343 343 344 345 346 346 347 348 347 348 347 346 345 346 346 347 347 346 346 346 344 344 343 342 342 342 338 332 330 330 328 331 331 330 330 330 330 327 326 325 321 316 318 316 312 313 313 314 312 315 315 313 313 313 313
348 350 346 344 345 344 345 344 343 343 344 345 345 346 348 348 348 349 349 348 348 347 344 343 342 343 342 342 342 341 341 341 342 341 340 338 333 331 331 329 329 329 329 330 330 328 325 321 318 316 314 314 316 312 313 311 311 310 311 312 314 314 313
350 351 348 347 347 346 346 346 345 346 346 346 346 347 349 348 348 349 349 348 346 343 342 340 341 340 340 340 339 338 339 340 340 340 339 339 336 331 331 329 330 330 329 330 330 328 326 323 321 320 316 311 311 310 308 310 310 309 309 310 312 313 312
350 351 350 348 349 349 348 348 347 347 348 347 348 348 349 349 349 349 348 348 346 341 340 339 340 339 339 339 337 336 335 339 337 337 338 339 338 336 333 331 330 330 329 330 329 327 326 325 323 321 319 314 308 305 308 307 308 307 311 308 311 312 312
351 350 349 349 349 351 350 349 347 348 349 349 349 350 349 349 349 348 346 347 347 341 340 340 339 338 338 337 337 336 336 338 338 337 338 338 337 336 333 332 331 328 329 328 327 327 325 325 324 323 322 316 312 308 305 306 307 306 309 310 307 309 311
351 351 351 350 349 349 349 350 348 348 349 349 349 350 349 348 348 349 347 347 348 345 341 340 339 338 337 335 335 335 337 339 338 338 338 337 335 332 330 329 330 327 329 327 326 326 325 324 323 324 321 319 317 310 309 306 307 309 308 310 309 308 309
352 351 352 352 350 348 348 348 348 348 349 349 348 348 348 347 347 346 346 345 346 346 344 341 339 338 336 335 336 336 336 334 334 335 337 337 334 331 329 329 329 328 328 327 326 325 325 325 325 327 320 319 319 316 312 311 308 309 313 307 308 310 309
351 351 351 351 350 347 348 348 349 348 348 348 348 348 347 346 346 345 345 345 345 344 343 342 341 340 338 338 335 334 333 332 332 332 333 334 334 331 330 328 328 328 328 327 326 325 324 325 326 326 322 319 320 320 320 316 313 308 313 309 310 309 310
351 351 351 352 351 349 349 348 349 350 349 348 348 347 346 345 344 344 344 343 342 341 341 340 340 338 337 336 334 333 332 332 329 330 331 330 330 331 330 327 326 327 328 327 326 324 325 325 326 325 324 320 321 321 320 318 315 312 312 312 312 309 309
351 351 350 351 351 350 349 349 350 350 348 348 348 346 345 345 344 344 342 342 340 340 339 338 338 337 335 335 333 333 332 329 329 330 329 327 328 329 330 327 326 326 327 326 326 325 325 324 325 324 323 320 319 320 322 319 317 310 309 311 312 310 309
351 351 350 350 350 349 350 349 350 349 348 348 347 346 345 344 343 342 341 340 340 339 337 337 337 336 334 333 332 332 330 329 329 329 327 326 325 327 328 327 326 326 326 325 325 324 325 324 324 323 322 321 320 320 322 322 319 310 309 309 310 306 307
351 350 349 349 350 349 349 349 349 349 348 348 345 345 345 343 342 341 340 340 339 338 337 336 335 335 333 332 331 330 330 330 330 329 327 326 325 326 325 326 326 325 325 324 323 324 324 324 323 322 322 322 322 322 323 323 321 312 310 309 307 306 308
349 349 348 349 350 350 349 348 348 348 348 346 345 344 343 342 341 340 339 339 337 336 335 335 333 334 333 332 331 330 329 328 329 328 328 327 328 325 325 325 325 325 325 323 323 323 323 323 324 323 322 323 322 323 324 323 316 315 311 309 309 309 308
348 348 348 348 349 349 348 348 348 347 347 344 344 344 342 341 340 339 339 338 337 335 334 333 332 332 331 332 331 330 329 329 328 328 327 327 327 325 324 324 324 324 323 323 323 324 324 324 324 324 323 323 323 323 322 320 317 315 313 311 309 309 308
348 348 347 348 349 349 348 347 347 346 345 344 343 342 341 340 340 339 338 337 336 334 333 332 331 331 331 331 331 330 330 329 328 329 327 324 325 327 326 325 324 324 324 323 324 324 323 324 325 323 323 324 323 321 320 318 316 315 313 311 310 309 307
348 348 348 349 349 348 348 347 346 346 344 343 342 341 340 340 340 339 338 337 336 334 333 332 332 331 331 330 331 330 330 327 326 327 326 324 324 324 324 324 323 323 323 322 323 324 324 324 324 322 323 324 322 319 318 318 316 314 313 312 309 307 306
348 348 347 348 348 347 347 347 346 345 343 343 342 341 340 340 339 338 337 337 336 335 333 332 332 331 330 330 330 329 329 327 326 324 323 323 322 322 322 321 321 320 319 316 311 311 312 318 325 321 323 323 320 319 317 316 316 313 312 312 310 310 307
347 347 347 347 346 346 346 346 344 343 342 342 341 341 340 339 338 337 336 336 335 334 333 333 328 322 323 329 328 328 328 326 324 322 321 320 320 319 319 319 318 321 318 314 308 303 302 304 307 313 320 321 321 319 317 315 314 313 312 310 309 307 306
346 345 345 346 346 346 345 345 343 342 341 341 341 340 339 338 337 337 336 334 334 333 333 329 311 308 310 313 327 328 326 324 321 320 319 318 317 317 318 319 316 317 318 315 306 300 299 299 299 299 300 303 309 319 317 315 314 313 311 312 311 309 306
344 344 344 345 345 346 345 344 342 341 340 340 339 340 338 338 337 336 335 334 333 332 327 310 302 305 306 307 317 329 326 322 320 318 318 318 318 317 319 319 317 317 315 315 311 308 304 299 297 297 297 297 296 296 300 311 315 313 312 311 309 309 307
342 342 343 344 345 345 343 342 341 340 339 339 339 338 338 337 336 336 335 333 331 330 321 303 302 302 303 303 304 318 324 323 320 319 319 319 318 318 319 316 314 315 314 320 316 313 309 305 301 300 301 302 301 299 295 295 299 310 314 313 310 309 307
340 340 342 343 344 343 341 340 340 339 339 338 338 338 338 337 336 335 334 332 331 327 320 304 302 301 302 302 302 312 326 325 323 322 321 321 320 319 320 316 313 315 314 314 313 314 312 310 309 309 312 312 308 307 302 302 302 303 308 311 309 310 311
339 340 341 343 342 341 340 339 339 338 338 337 337 337 337 335 334 334 333 332 330 325 320 301 301 301 301 301 300 308 327 326 324 323 322 322 321 320 320 319 317 315 313 313 315 313 312 311 311 313 312 313 311 308 305 307 310 310 310 311 309 311 312
339 340 341 342 341 340 339 339 338 337 337 338 338 338 338 335 333 333 333 332 329 324 315 298 300 300 301 300 301 319 326 323 323 322 321 321 321 320 320 320 318 315 312 314 311 304 308 312 311 310 310 309 304 301 299 298 297 301 306 306 306 307 307
339 340 341 341 340 339 338 338 338 337 337 337 336 335 335 335 334 333 332 331 328 320 310 300 299 299 300 299 307 320 324 320 321 320 320 321 321 320 321 320 319 315 313 311 301 298 301 308 310 309 309 307 305 302 301 300 295 294 294 294 294 295 294
339 339 340 340 339 339 339 338 338 336 336 335 334 334 335 334 334 333 331 331 325 317 312 303 297 299 299 299 310 320 321 319 319 319 319 320 320 319 317 318 322 318 313 308 297 297 297 307 310 308 308 307 304 301 301 302 301 298 294 294 294 294 294
340 340 340 339 339 338 338 337 337 336 336 336 335 335 334 333 332 332 332 330 319 318 313 304 297 298 299 298 308 320 320 318 318 318 317 317 319 317 315 313 311 314 312 305 296 297 297 307 311 310 309 307 305 303 302 302 300 300 301 301 302 302 301
340 341 340 339 339 338 338 337 336 335 335 335 334 335 333 333 331 331 331 328 322 319 312 307 301 297 299 299 301 318 321 318 317 317 316 316 316 316 314 310 304 298 298 295 295 295 296 299 311 313 311 308 306 304 304 303 302 302 302 302 302 303 303
340 341 340 339 338 337 337 336 334 334 334 334 334 333 332 332 331 330 330 330 325 319 314 309 303 297 299 299 299 302 320 320 318 317 316 314 315 315 313 310 307 296 294 294 295 295 296 295 297 308 310 310 309 307 303 303 303 305 302 302 302 302 302
342 340 339 338 336 335 336 335 334 334 334 333 333 331 331 330 330 329 329 330 325 319 314 309 306 297 299 298 299 297 313 319 317 318 316 314 313 314 313 311 307 298 294 294 293 294 295 293 291 307 303 297 297 297 305 304 302 302 302 301 300 299 300
340 340 338 337 335 334 334 333 333 333 333 332 332 330 330 329 329 328 328 329 325 320 315 310 302 302 298 298 297 296 296 302 295 320 317 313 314 314 315 312 308 298 294 293 293 293 294 292 298 302 292 293 295 296 299 301 300 301 300 299 299 299 298
340 338 336 335 334 333 332 332 332 332 332 331 330 329 329 329 328 327 327 327 323 318 316 312 303 302 301 296 295 295 294 292 292 315 320 317 318 318 314 310 303 293 293 292 292 292 292 294 300 292 293 294 294 297 303 300 299 301 299 299 299 299 299
Wind_Speed
8 8 9 6 6 7 6 8 7 6 7 8 7 8 8 7 8 7 6 4 4 5 4 5 4 3 3 4 5 6 7 6 5 7 7 6 8 5 4 3 2 1 9 3 8 9 8 8 6 3 3 6 6 5 6 6 6 5 5 4 4 3 3
7 7 8 7 7 7 7 7 7 7 7 7 8 8 8 8 7 6 7 5 4 4 5 5 5 5 5 4 4 5 8 7 5 5 5 7 7 7 6 5 3 3 6 4 5 4 4 7 6 8 6 5 2 3 4 5 5 6 5 5 4 4 3
7 8 8 8 7 8 8 9 8 8 8 7 7 8 7 8 8 8 7 7 6 5 5 5 6 5 5 5 4 5 5 9 6 5 7 4 6 5 6 6 5 4 4 4 3 5 2 4 8 10 9 9 7 4 2 4 7 5 5 5 5 5 5
10 10 10 10 9 9 9 10 9 8 7 8 6 6 7 8 8 8 7 6 5 5 5 6 3 3 5 4 4 4 5 5 7 9 5 4 4 5 5 5 8 9 9 8 8 7 6 5 6 8 9 9 8 8 6 5 6 6 6 5 4 5 6
10 10 11 12 11 11 10 10 9 8 8 7 7 7 7 8 7 7 6 6 5 4 6 2 2 1 2 2 2 3 4 4 4 7 9 7 6 4 4 5 6 6 6 6 6 8 8 7 8 8 7 8 7 6 6 4 4 6 5 6 4 4 6
11 10 11 11 10 11 9 10 9 9 8 8 8 8 7 8 6 6 7 6 6 7 5 4 2 1 1 1 2 3 3 4 5 5 7 10 9 6 8 5 5 6 6 3 4 7 5 5 7 8 3 8 7 7 7 7 4 3 5 6 6 5 5
11 9 10 10 9 9 9 9 10 9 9 8 9 9 8 8 6 5 6 6 4 4 5 4 3 2 2 1 0 1 2 2 1 4 5 6 10 9 9 8 7 7 7 5 4 5 6 8 8 9 7 6 2 5 4 5 5 4 4 6 6 6 5
10 8 8 8 9 9 8 9 9 9 8 8 8 8 8 7 7 5 6 6 6 5 3 3 3 3 4 4 3 1 1 1 2 3 3 3 7 7 7 10 8 6 5 5 4 5 7 8 8 7 9 9 4 4 4 4 6 6 5 3 6 6 5
9 7 7 8 9 9 9 9 10 9 7 8 7 8 7 7 6 6 6 6 8 6 4 4 4 3 3 5 4 3 2 1 2 2 3 3 4 8 9 8 9 9 4 4 6 7 7 7 9 7 7 8 9 5 3 4 5 6 8 6 6 6 5
11 10 9 10 10 9 8 8 9 9 8 8 7 7 7 7 7 6 6 6 7 10 6 5 3 2 2 2 6 5 3 4 4 3 4 4 2 3 4 6 5 4 5 6 6 6 7 8 8 8 7 8 7 9 7 6 6 6 9 8 5 5 8
11 10 9 9 10 9 8 7 8 9 8 8 7 7 7 7 6 7 5 5 4 7 9 6 4 2 3 3 1 0 1 1 1 2 1 1 5 4 4 5 5 6 7 8 9 9 10 10 9 7 6 4 4 8 7 7 6 6 6 6 5 6 7
11 10 9 9 9 10 10 9 10 9 8 8 7 7 8 7 6 6 5 5 5 3 7 8 7 5 4 3 2 2 1 1 0 0 1 1 5 5 5 5 5 7 7 8 8 8 8 8 6 6 6 5 5 6 7 6 4 5 5 7 5 8 9
11 11 10 9 10 11 10 9 9 9 9 8 7 8 8 8 7 7 5 6 6 5 4 5 7 7 6 3 1 1 2 2 2 1 2 2 3 5 5 6 5 6 6 7 7 6 7 7 6 6 6 7 6 5 5 5 3 6 5 8 5 8 11
12 11 11 10 9 11 9 9 8 8 8 8 8 8 8 8 8 7 6 6 7 6 5 5 5 5 4 4 3 1 0 2 3 2 0 2 5 7 7 8 8 6 7 7 7 7 7 7 6 6 4 7 5 5 5 4 3 4 3 5 4 7 9
11 11 11 10 9 10 10 9 8 8 9 8 9 9 10 8 8 8 7 7 7 8 7 6 6 4 4 4 4 3 2 4 4 1 2 3 1 4 6 9 8 8 7 7 7 6 6 7 6 6 5 7 6 6 5 5 3 6 6 5 3 7 7
11 11 11 10 10 10 9 9 8 9 9 9 9 9 9 8 9 9 8 7 7 8 7 7 6 6 5 6 6 6 5 5 5 3 2 3 3 3 2 4 8 8 7 7 8 7 6 6 6 7 6 6 7 6 6 5 2 6 7 4 4 6 6
14 13 12 11 12 11 9 9 9 10 10 9 10 10 7 9 9 8 8 8 8 8 8 6 6 6 7 7 7 8 6 6 6 5 4 5 4 5 4 4 7 8 7 7 8 7 7 6 6 7 6 6 6 6 5 6 5 7 4 6 4 4 5
14 14 12 11 12 11 10 9 9 10 9 10 9 10 9 10 9 9 8 9 9 9 7 8 7 7 7 7 8 7 5 5 4 5 7 5 4 6 4 4 7 7 6 5 6 6 7 8 8 7 7 6 7 6 5 5 8 7 7 6 5 3 5
14 14 13 11 12 11 11 10 10 9 10 11 10 10 10 10 9 9 9 9 10 9 8 8 7 7 7 7 6 6 6 5 5 7 7 5 2 6 5 3 4 5 6 6 6 6 6 8 7 6 6 7 6 6 6 6 8 8 8 7 6 4 5
12 13 12 11 10 10 10 11 11 11 10 10 11 10 9 10 9 9 10 9 10 9 8 9 7 7 6 8 6 7 7 6 5 3 2 5 3 2 1 2 4 4 4 4 4 5 4 5 7 5 5 4 4 6 7 8 8 8 7 7 5 4 5
12 13 12 11 11 11 10 10 10 10 10 11 11 11 11 10 9 8 8 8 9 9 10 10 9 8 6 6 4 4 3 4 3 2 3 3 3 2 1 2 3 3 2 1 1 1 1 1 0 0 1 2 1 6 5 6 7 7 7 6 6 5 5
11 12 13 12 12 12 11 11 11 10 10 10 9 11 9 10 10 10 10 8 9 8 9 9 7 8 6 7 6 5 3 3 3 3 2 3 3 3 2 3 2 3 7 8 11 9 8 7 1 1 1 1 1 4 4 4 5 6 6 6 6 5 6
13 13 14 13 13 12 11 12 11 10 11 10 10 9 10 9 9 9 10 9 7 8 7 7 9 14 9 6 7 5 4 4 4 4 3 3 3 3 3 4 6 10 10 11 11 11 10 11 10 7 2 0 0 3 4 4 4 5 5 5 6 6 7
14 14 14 13 13 12 13 12 12 12 12 11 11 10 10 11 10 10 10 9 7 8 6 5 15 15 9 5 9 5 6 5 7 5 5 4 4 5 4 6 4 6 8 8 8 11 10 11 12 12 12 12 10 3 1 2 3 4 5 5 5 6 7
15 15 14 14 14 13 12 12 12 12 12 12 11 10 11 11 12 9 8 9 7 7 7 11 14 14 14 9 6 5 5 6 6 6 5 5 5 5 5 6 4 3 4 5 6 7 8 10 12 12 12 12 13 13 11 5 1 4 4 3 5 5 7
16 15 15 15 13 13 13 14 13 13 13 11 11 11 12 11 11 8 9 9 9 8 8 13 14 14 13 12 8 4 6 5 6 6 5 6 6 5 4 6 4 3 4 9 6 6 6 6 8 10 10 11 11 11 10 10 7 4 2 1 3 5 6
15 15 15 14 13 14 14 14 13 12 11 11 11 10 10 11 10 10 9 9 9 8 9 12 15 13 12 13 9 3 4 5 5 5 6 6 5 5 5 6 6 4 5 4 4 5 5 6 5 4 3 4 5 4 8 11 12 14 9 5 5 2 1
15 15 15 14 14 14 14 14 13 12 11 11 11 12 11 11 9 9 8 9 8 9 8 14 15 14 13 12 10 4 2 5 4 5 5 4 5 5 5 6 5 7 6 4 5 7 5 5 5 4 3 3 5 7 6 6 6 5 5 5 6 6 5
15 14 15 14 16 15 14 14 14 12 10 10 10 10 9 10 11 10 9 10 9 10 9 15 16 15 14 12 10 4 2 5 4 5 4 4 4 4 4 5 6 7 6 4 10 14 8 6 6 5 5 5 8 7 6 3 4 8 6 5 5 6 5
15 15 15 15 16 15 14 14 13 11 11 11 11 11 10 9 10 10 10 9 10 10 8 11 15 15 15 14 8 4 3 4 4 5 4 4 3 4 3 3 4 7 6 6 10 12 12 10 6 6 6 7 6 7 5 4 6 11 13 13 13 13 13
14 15 15 16 16 14 13 12 12 12 12 12 12 11 9 8 9 9 10 10 11 12 9 10 14 15 15 14 10 5 4 5 5 5 5 4 4 5 7 10 4 5 8 8 12 12 9 6 5 5 5 7 8 7 5 3 5 5 9 11 11 11 12
14 15 16 15 14 14 15 14 12 11 11 11 10 10 8 8 8 8 9 9 15 15 8 10 12 15 15 14 11 5 6 5 6 5 5 5 4 6 4 6 8 8 11 11 14 11 9 5 4 5 5 6 7 8 6 6 7 6 5 6 5 6 6
13 14 15 15 13 13 12 11 12 12 11 10 10 10 9 9 10 9 8 10 11 13 10 8 11 16 15 15 15 7 5 5 7 6 5 6 5 6 5 4 7 12 13 12 11 11 9 4 2 1 3 5 5 8 8 7 6 6 5 5 5 4 5
13 13 14 13 12 12 11 12 12 12 11 10 10 9 11 9 10 8 8 9 10 10 10 11 11 16 16 16 16 12 3 5 6 5 6 6 5 7 6 5 5 10 13 10 8 7 5 5 3 2 4 3 4 8 11 6 8 9 5 5 5 4 4
14 12 12 13 12 12 10 11 12 11 10 10 11 10 10 9 9 8 8 9 10 11 14 20 12 14 17 16 17 13 2 3 1 7 5 6 5 7 8 8 7 10 14 12 10 8 7 6 4 2 3 2 13 17 10 7 6 5 5 5 5 4 4
13 11 12 13 14 13 11 12 12 11 11 10 11 12 11 10 9 9 9 7 9 11 11 12 20 15 16 17 15 9 5 3 8 3 5 6 5 7 7 9 10 14 14 14 11 10 9 8 5 2 2 2 13 15 11 6 6 6 6 5 5 5 5
12 12 13 13 13 13 12 12 12 9 11 10 10 11 10 10 10 10 9 8 8 9 11 10 14 19 16 16 10 11 9 5 7 3 5 4 2 5 8 9 10 14 12 12 11 9 8 4 3 6 5 5 10 11 6 6 6 6 6 6 5 5 5
Wind_Direction
171 170 169 163 156 163 175 164 184 189 195 203 203 198 199 180 182 201 208 204 188 180 186 207 223 200 180 189 178 165 135 155 158 168 167 168 185 211 197 207 145 239 154 170 160 164 158 161 186 199 197 217 196 179 173 158 160 147 136 145 173 154 158
171 165 163 163 161 165 174 168 186 188 199 206 202 203 192 187 181 193 198 202 202 189 188 199 212 212 188 193 176 158 147 153 172 176 161 174 184 199 175 205 176 179 162 190 167 173 145 154 164 175 181 211 188 205 155 165 133 132 146 169 168 164 173
172 160 166 167 172 173 178 174 188 190 192 205 203 197 194 189 185 192 194 198 201 204 192 211 206 209 188 183 176 159 158 154 168 177 201 195 180 184 181 177 180 170 163 197 183 174 132 166 161 179 183 166 177 190 154 154 128 151 159 181 181 166 142
176 163 170 172 177 177 180 177 187 189 190 198 199 189 192 199 187 187 193 195 196 207 210 211 233 207 166 167 167 155 166 179 163 164 188 225 220 189 182 180 192 189 185 187 182 184 167 160 138 170 178 165 174 161 194 167 156 156 177 175 169 148 145
183 172 181 171 178 177 182 179 182 184 186 194 188 187 195 196 193 183 185 191 185 211 214 149 118 99 113 131 144 155 172 184 186 167 161 193 208 247 232 197 208 205 211 192 183 181 179 177 161 162 162 152 171 173 175 150 182 164 181 157 165 170 172
187 179 184 173 179 178 179 175 181 183 185 189 184 187 194 195 191 182 180 181 181 202 203 120 135 123 98 110 158 169 184 192 191 191 171 167 181 185 243 232 204 210 218 200 165 178 165 139 136 131 131 158 170 162 169 159 183 179 150 161 175 184 183
187 184 183 174 178 179 179 176 181 184 186 190 179 186 186 189 193 186 177 175 163 180 202 158 142 156 120 113 182 211 198 188 193 215 207 177 161 176 201 240 234 208 211 201 207 168 150 136 140 148 144 180 180 138 138 144 163 165 165 174 195 169 183
187 187 176 173 179 179 180 175 182 185 184 184 183 182 175 181 186 184 178 170 140 173 214 228 181 162 138 138 171 203 254 213 208 214 228 199 162 135 174 203 235 236 200 196 181 145 135 138 137 151 163 156 138 130 142 159 157 195 173 181 204 161 167
188 186 175 173 182 181 180 179 182 184 184 176 179 173 172 172 177 179 171 172 140 160 190 231 248 212 158 139 149 144 189 231 240 223 227 227 190 167 163 179 202 218 153 155 156 150 139 127 133 173 173 159 148 147 148 162 179 194 168 195 195 155 139
188 193 186 177 177 184 180 178 178 183 183 172 168 167 169 169 169 173 173 172 153 159 178 190 232 294 293 177 144 150 177 205 214 221 205 214 153 138 131 160 186 162 153 151 132 130 137 142 162 179 172 168 170 145 161 179 196 177 189 189 170 150 140
188 196 190 179 172 178 180 183 177 185 181 165 165 166 166 166 162 168 160 156 155 153 163 174 176 220 274 300 331 128 174 130 233 202 170 140 114 105 114 119 118 121 139 150 162 161 156 160 170 177 176 196 167 153 160 172 190 182 171 171 169 148 143
189 194 190 180 173 179 183 187 185 182 169 160 165 164 162 162 163 160 158 157 143 155 148 162 176 185 189 246 276 274 50 68 314 294 91 158 124 136 133 127 129 136 148 160 162 159 154 156 177 185 181 197 178 162 163 172 152 211 158 166 177 150 148
188 191 192 185 177 180 185 186 179 173 172 163 168 161 160 158 158 161 167 152 147 150 137 139 153 157 176 169 118 345 354 351 292 234 169 127 157 151 147 127 135 140 146 149 160 153 168 177 175 190 190 196 191 187 179 186 189 184 177 164 166 144 151
187 189 191 191 182 177 182 185 182 175 168 169 159 153 159 156 164 166 162 156 161 145 141 149 132 136 152 152 145 140 192 260 265 253 317 107 232 154 151 138 146 158 158 153 158 165 180 183 184 200 207 194 187 199 204 212 209 123 123 152 151 145 156
185 188 189 190 188 179 179 183 181 173 176 164 159 156 163 167 163 170 165 166 164 150 157 156 145 151 161 152 158 166 176 226 243 204 112 227 245 81 144 148 155 157 175 160 160 176 173 175 182 195 204 184 202 208 210 208 192 141 146 159 138 133 148
186 187 187 188 188 184 178 180 174 176 173 164 160 161 176 158 161 171 169 171 162 164 163 156 159 164 172 170 174 178 198 205 221 157 189 205 188 147 168 150 146 154 173 173 176 188 190 189 188 194 199 187 199 211 211 213 172 141 145 154 139 141 149
184 186 187 186 185 183 180 180 171 175 174 169 166 167 168 158 175 178 167 169 167 161 161 149 161 177 177 179 177 185 199 200 204 171 195 209 186 153 168 160 146 154 167 174 173 190 184 191 198 191 197 195 210 205 205 212 157 141 141 143 151 154 151
181 183 185 183 182 181 181 179 172 175 174 171 172 163 164 175 175 178 172 169 163 164 157 158 172 186 181 179 183 174 191 202 181 168 212 207 196 146 168 195 154 147 158 177 172 188 176 188 203 199 197 199 199 207 207 146 124 131 134 143 159 168 146
180 180 182 181 181 183 179 180 172 177 176 171 170 168 170 178 174 179 165 174 163 168 166 162 174 191 181 177 183 165 183 188 198 194 217 197 154 148 164 163 128 144 164 183 180 190 198 189 200 201 201 205 199 187 164 128 133 131 143 146 163 159 146
178 178 180 178 177 182 179 176 174 177 176 171 167 171 176 176 171 176 182 174 172 171 163 160 172 193 187 176 184 169 187 178 206 203 150 117 126 97 101 119 135 151 174 195 197 191 206 205 198 197 199 198 200 156 148 139 145 142 150 147 158 158 142
179 178 177 175 178 181 177 175 174 174 169 170 169 175 181 176 170 185 176 181 176 169 159 165 174 187 187 163 170 163 187 157 176 109 95 89 90 105 132 112 113 144 167 223 270 212 206 195 169 260 298 235 126 138 143 139 143 147 153 145 155 159 149
176 174 173 176 179 182 177 173 173 174 168 170 169 178 177 177 175 185 173 184 179 166 161 165 175 174 177 157 161 169 172 149 125 108 105 132 121 140 148 114 115 89 78 80 72 68 61 51 51 212 216 87 109 140 150 143 149 139 145 141 157 150 141
176 173 176 178 182 179 175 172 176 169 171 169 173 173 176 180 179 182 179 181 170 162 160 174 157 162 159 160 160 173 156 157 143 139 171 153 159 159 154 95 95 100 93 86 79 71 65 66 63 63 356 35 266 111 142 155 151 154 155 165 164 154 145
176 177 177 178 179 179 176 174 173 169 171 172 174 181 174 180 177 194 185 178 168 154 152 126 147 147 135 170 163 160 169 160 136 165 181 167 173 176 162 129 128 121 118 92 82 80 72 75 73 64 64 71 59 61 148 152 178 168 162 175 155 148 154
178 178 177 178 179 176 170 167 171 170 169 171 173 180 183 183 185 191 170 179 157 148 117 136 134 135 121 109 115 154 136 131 154 171 180 170 180 182 166 134 145 149 131 137 126 104 91 85 88 85 83 81 77 68 70 69 166 156 163 165 156 164 156
181 178 177 178 175 171 168 171 172 169 171 172 173 186 189 181 185 179 172 168 154 137 128 136 132 130 126 115 89 117 136 161 165 169 174 177 180 178 149 134 147 180 159 147 140 132 123 105 98 109 102 89 81 83 74 61 54 72 44 103 152 169 158
183 180 178 177 170 172 170 175 171 167 166 171 178 188 187 186 175 175 174 154 147 131 129 141 136 135 128 122 113 103 159 166 168 168 175 177 171 173 151 149 164 144 132 155 158 140 134 129 134 138 153 117 101 90 70 54 43 38 45 73 72 66 163
182 181 178 170 165 169 170 170 170 171 170 175 182 192 183 181 174 175 163 150 138 139 143 148 140 139 136 127 125 103 240 153 176 170 172 177 163 164 154 160 158 142 157 171 159 143 140 143 142 139 127 118 81 65 61 53 53 55 71 73 86 90 77
181 181 178 169 169 171 175 174 171 170 168 174 186 187 183 176 175 174 164 149 138 140 145 153 145 144 143 136 126 156 232 159 184 160 165 160 153 154 160 163 154 145 162 169 140 143 146 145 144 145 146 113 91 82 63 1 55 94 92 99 103 102 96
181 181 176 170 171 171 174 171 170 166 169 178 182 183 183 175 169 168 161 151 137 138 136 160 149 149 146 142 140 190 194 167 177 148 157 153 147 151 167 170 149 143 148 123 131 130 153 154 151 156 150 130 117 109 99 84 66 88 97 98 101 109 114
180 180 177 173 171 170 171 170 170 166 172 174 176 180 175 174 167 166 163 152 139 140 140 159 158 150 147 153 165 193 178 178 161 152 150 157 143 94 74 64 47 138 132 139 138 141 152 164 155 156 152 137 132 125 134 136 101 76 88 99 105 108 108
180 177 175 173 173 168 171 171 167 165 167 170 169 172 172 173 169 163 167 143 138 141 132 157 167 152 152 166 180 220 179 181 153 156 152 161 147 113 88 68 67 111 138 155 150 149 163 172 165 162 164 158 146 147 157 151 129 126 122 109 103 98 94
177 173 170 169 168 168 163 159 162 168 168 169 169 173 172 169 169 166 159 135 143 141 132 138 170 160 160 177 193 212 196 157 161 157 158 167 161 132 123 97 88 116 133 142 153 150 177 161 34 21 165 164 165 146 155 150 153 146 151 145 146 139 138
170 172 171 165 162 161 162 161 159 166 165 167 170 172 174 171 170 161 158 141 143 136 140 143 168 169 169 185 201 212 270 162 157 162 163 165 171 142 140 128 123 129 131 138 138 161 147 89 95 18 340 202 168 142 146 150 162 163 153 142 138 140 146
165 167 163 156 159 159 159 158 161 164 166 168 168 167 169 165 163 160 164 149 140 149 152 153 155 177 175 192 206 204 259 10 68 164 170 166 182 152 153 147 151 155 148 150 154 160 143 124 94 61 7 320 132 136 141 141 153 149 130 132 141 146 148
160 163 163 161 158 158 157 160 162 166 171 171 167 165 166 165 165 164 166 158 137 149 151 153 160 168 182 195 202 184 225 324 325 238 161 170 183 159 148 155 159 161 155 155 159 158 149 129 123 102 101 138 135 128 126 142 151 145 145 152 160 163 168
159 155 155 157 158 155 158 160 164 171 177 173 170 167 171 167 168 166 165 152 134 148 156 152 165 166 177 195 168 181 193 238 301 219 154 149 103 116 126 148 151 154 149 146 143 136 127 109 125 141 125 167 142 133 136 142 151 156 154 162 171 179 181